Location: Newark
(21.1200°N, 73.4000°E)
Time: 14:16:02
(UTC+00:00)

Courier 1B - All Passes

Search period start: 20 January 2020 00:00
Search period end: 30 January 2020 00:00
Orbit: 962 x 1209 km, 28.3° (Epoch: 19 January)

Date Brightness Start Highest point End Pass type
(mag) Time Alt. Az. Time Alt. Az. Time Alt. Az.
20 Jan - 00:32:45 10° W 00:40:18 57° N 00:48:02 10° ENE visible
20 Jan - 02:27:53 10° WNW 02:35:30 51° N 02:43:03 10° E daylight
20 Jan - 04:22:34 10° WNW 04:30:28 78° NNE 04:38:05 10° ESE daylight
20 Jan - 06:17:29 10° W 06:24:45 45° SSW 06:31:40 10° SE daylight
20 Jan - 08:15:48 10° WSW 08:18:34 12° SW 08:21:16 10° SSW daylight
20 Jan - 19:52:53 10° SSW 19:57:49 20° SSE 20:02:55 10° ESE night (unlit)
20 Jan - 21:44:29 10° SW 21:51:39 63° SSE 21:59:15 10° ENE visible
20 Jan - 23:38:40 10° W 23:46:10 64° NNW 23:53:57 10° ENE visible
21 Jan - 01:33:46 10° WNW 01:41:16 50° N 01:48:52 10° ENE daylight
21 Jan - 03:28:32 10° WNW 03:36:23 67° NNE 03:44:04 10° E daylight
21 Jan - 05:23:13 10° WNW 05:30:52 59° SSW 05:38:13 10° SE daylight
21 Jan - 07:19:48 10° WSW 07:24:47 19° SSW 07:29:37 10° S daylight
21 Jan - 19:00:58 10° S 19:04:04 13° SE 19:07:15 10° ESE night (unlit)
21 Jan - 20:51:03 10° SW 20:57:49 48° SSE 21:05:00 10° E night (unlit)
21 Jan - 22:44:41 10° WSW 22:52:05 74° NNW 22:59:52 10° ENE visible
22 Jan - 00:39:38 10° WNW 00:47:03 50° N 00:54:40 10° ENE visible
22 Jan - 02:34:30 10° WNW 02:42:14 59° NNE 02:49:56 10° E daylight
22 Jan - 04:29:03 10° WNW 04:36:56 75° SSW 04:44:33 10° ESE daylight
22 Jan - 06:24:45 10° W 06:30:59 27° SSW 06:36:59 10° SSE daylight
22 Jan - 19:57:49 10° SSW 20:04:02 35° SSE 20:10:36 10° E night (unlit)
22 Jan - 21:50:51 10° WSW 21:58:05 88° NNW 22:05:47 10° ENE visible
22 Jan - 23:45:33 10° W 23:52:52 53° N 00:00:30 10° ENE visible
23 Jan - 01:40:29 10° WNW 01:48:03 54° N 01:55:43 10° E daylight
23 Jan - 03:35:01 10° WNW 03:42:55 89° NNE 03:50:43 10° ESE daylight
23 Jan - 05:30:08 10° W 05:37:09 36° SSW 05:43:56 10° SE daylight
23 Jan - 19:04:53 10° SSW 19:10:19 25° SSE 19:15:59 10° E night (unlit)
23 Jan - 20:57:09 10° WSW 21:04:10 76° SSE 21:11:40 10° ENE visible
23 Jan - 22:51:31 10° W 22:58:44 57° N 23:06:21 10° ENE visible
24 Jan - 00:46:28 10° WNW 00:53:51 51° N 01:01:28 10° ENE visible
24 Jan - 02:41:00 10° WNW 02:48:51 76° NNE 02:56:42 10° ESE daylight
24 Jan - 04:35:45 10° W 04:43:15 48° SSW 04:50:34 10° SE daylight
24 Jan - 06:33:19 10° WSW 06:37:13 14° SW 06:41:01 10° S daylight
24 Jan - 18:12:25 10° S 18:16:38 17° SSE 18:20:58 10° ESE night (unlit)
24 Jan - 20:03:36 10° SW 20:10:20 59° SSE 20:17:31 10° ENE night (unlit)
24 Jan - 21:57:33 10° W 22:04:40 65° NNW 22:12:14 10° ENE visible
24 Jan - 23:52:27 10° WNW 23:59:39 49° N 00:07:11 10° ENE visible
25 Jan - 01:47:04 10° WNW 01:54:44 65° NNE 02:02:33 10° E daylight
25 Jan - 03:41:34 10° WNW 03:49:18 63° SSW 03:56:59 10° SE daylight
25 Jan - 05:37:47 10° WSW 05:43:21 21° SSW 05:48:49 10° SSE daylight
25 Jan - 17:21:09 10° SSE 17:22:56 11° SE 17:24:44 10° SE night (unlit)
25 Jan - 19:10:15 10° SW 19:16:35 44° SSE 19:23:17 10° E night (unlit)
25 Jan - 21:03:41 10° WSW 21:10:40 76° NNW 21:18:08 10° ENE visible
25 Jan - 22:58:27 10° WNW 23:05:30 50° N 23:12:56 10° ENE visible
26 Jan - 00:53:08 10° WNW 01:00:36 57° N 01:08:19 10° E visible
26 Jan - 02:47:30 10° WNW 02:55:19 78° SSW 03:03:10 10° ESE daylight
26 Jan - 04:42:55 10° W 04:49:29 29° SSW 04:55:58 10° SSE daylight
26 Jan - 18:17:08 10° SSW 18:22:53 32° SSE 18:28:54 10° E night (unlit)
26 Jan - 20:09:56 10° WSW 20:16:45 89° S 20:24:05 10° ENE night (unlit)
26 Jan - 22:04:27 10° W 22:11:23 52° N 22:18:45 10° ENE visible
26 Jan - 23:59:13 10° WNW 00:06:27 52° N 00:14:01 10° E visible
27 Jan - 01:53:33 10° WNW 02:01:17 86° NNE 02:09:12 10° ESE daylight
27 Jan - 03:48:26 10° W 03:55:35 39° SSW 04:02:43 10° SE daylight
27 Jan - 05:48:04 10° SW 05:49:38 11° SW 05:51:12 10° SSW daylight
27 Jan - 17:24:19 10° SSW 17:29:13 22° SSE 17:34:17 10° E night (unlit)
27 Jan - 19:16:18 10° WSW 19:22:57 71° SSE 19:30:01 10° ENE night (unlit)
27 Jan - 21:10:31 10° W 21:17:20 57° N 21:24:36 10° ENE visible
27 Jan - 23:05:18 10° WNW 23:12:18 49° N 23:19:42 10° ENE visible
28 Jan - 00:59:40 10° WNW 01:07:14 73° NNE 01:15:04 10° ESE visible
28 Jan - 02:54:11 10° W 03:01:39 51° SSW 03:09:13 10° SE daylight
28 Jan - 04:51:12 10° WSW 04:55:44 16° SSW 05:00:14 10° S daylight
28 Jan - 16:32:00 10° S 16:35:34 15° SSE 16:39:11 10° ESE night (unlit)
28 Jan - 18:22:50 10° SW 18:29:12 54° SSE 18:35:55 10° ENE night (unlit)
28 Jan - 20:16:38 10° W 20:23:21 66° NNW 20:30:32 10° ENE night (unlit)
28 Jan - 22:11:23 10° WNW 22:18:11 48° N 22:25:25 10° ENE visible
29 Jan - 00:05:50 10° WNW 00:13:09 63° NNE 00:20:51 10° E visible
29 Jan - 02:00:08 10° WNW 02:07:42 66° SSW 02:15:30 10° SE daylight
29 Jan - 03:55:59 10° W 04:01:50 23° SSW 04:07:42 10° SSE daylight
29 Jan - 17:29:31 10° SW 17:35:31 40° SSE 17:41:45 10° E night (unlit)
29 Jan - 19:22:48 10° WSW 19:29:28 78° NNW 19:36:32 10° ENE night (unlit)
29 Jan - 21:17:28 10° WNW 21:24:07 49° N 21:31:12 10° ENE visible
29 Jan - 23:12:01 10° WNW 23:19:04 55° N 23:26:33 10° E visible
